Aérodrome :
LOGIN :

S'inscrire | Disclaimer

   EN    FR    IT 

 










Légende :    VFR   VFR Marginal   IFR   IFR Intensif   IFR Très Intensif
Visi : 
Plafond : 
>= 8 km
>= 3000ft
5 à 8 km
1000 à 3000 ft
1500m à 5 km
500 à 1000 ft
800 à 1500m
200 à 500 ft
< 800m
< 200 ft
Symboles :   Orages  Brouillard  Fortes neiges  Fortes précipitations  Vent > 20 kt
SIGMETs :   Divers  Orages  Givrage  Turbulence  Onde Orograph.  Cendres Volcan.







- Altitude de l'aérodrome : 129 ft
- Code IATA : ZCN


ETHC - Celle

DERNIER METAR :
  • 251920Z 28005KT 9999 FEW038 BKN046 06/04 Q1023 BLU

METARs EXPIRÉS :
  • 251820Z 27003KT 9999 BKN030 06/04 Q1022 BLU
  • 251720Z 28005KT 9999 FEW012 SCT050 06/04 Q1021 BLU+FCST CANCEL

TAF AMD TAF ETHC
Valide du 25 à 15h jusqu'au 26 à 00h UTC


251400Z 2515/2524 33008KT 9999 NSW SCT020 BKN030
TEMPO 2515/2518 34010G20KT 5000 SHRA SCT012 BKN020CB
PROB30 2515/2518 35018G30KT 3000 TSGS SCT008 BKN012CB CANCEL 1730
Pas de NOTAMs connus pour ce terrain.



MET'MAP, la Météo Aéronautique d'un coup d'oeil ! - Copyright ORBIFLY Décembre 2007 - Disclaimer

ORBIFLY MET'MAP TEAM :

Programmation & Développement : Alexandra Zaïnal
Conception & Développement : Baudouin d'Aumeries
Co-Programmation & Développement : Marc-Olivier Méhu
Soutien technique & logistique : Manuel Goepfert

Contact : metmap@orbifly.com




SOURCES & CREDITS :

   NOAA